TimeEET,TemperatureF,Dew PointF,Humidity,Sea Level PressureIn,VisibilityMPH,Wind Direction,Wind SpeedMPH,Gust SpeedMPH,PrecipitationIn,Events,Conditions,WindDirDegrees,DateUTC
12:20 AM,37.4,32.0,81,30.27,-9999.0,SW,3.5,-,N/A,,Clear,220,2013-03-06 22:20:00
12:50 AM,37.4,32.0,81,30.27,-9999.0,Variable,1.2,-,N/A,,Clear,0,2013-03-06 22:50:00
1:20 AM,37.4,32.0,81,30.27,3.1,Calm,Calm,-,N/A,,Mist,0,2013-03-06 23:20:00
1:50 AM,37.4,30.2,75,30.24,3.1,ENE,6.9,-,N/A,,Mist,60,2013-03-06 23:50:00
2:20 AM,37.4,32.0,81,30.24,3.1,Variable,5.8,-,N/A,,Mist,0,2013-03-07 00:20:00
2:50 AM,35.6,30.2,81,30.24,3.1,NW,3.5,-,N/A,,Mist,310,2013-03-07 00:50:00
3:20 AM,37.4,30.2,75,30.24,3.1,North,3.5,-,N/A,,Mist,10,2013-03-07 01:20:00
3:50 AM,39.2,32.0,75,30.24,3.1,Variable,2.3,-,N/A,,Mist,0,2013-03-07 01:50:00
4:20 AM,33.8,28.4,81,30.24,3.1,WSW,2.3,-,N/A,,Mist,250,2013-03-07 02:20:00
4:50 AM,33.8,28.4,81,30.24,3.1,Variable,2.3,-,N/A,,Mist,0,2013-03-07 02:50:00
5:20 AM,33.8,28.4,81,30.24,3.1,SSE,4.6,-,N/A,,Mist,150,2013-03-07 03:20:00
5:50 AM,33.8,28.4,81,30.24,3.1,Calm,Calm,-,N/A,,Mist,0,2013-03-07 03:50:00
6:20 AM,33.8,28.4,81,30.24,3.1,Variable,2.3,-,N/A,,Mist,0,2013-03-07 04:20:00
6:50 AM,39.2,30.2,70,30.27,3.1,North,4.6,-,N/A,,Mist,350,2013-03-07 04:50:00
7:20 AM,42.8,33.8,70,30.27,3.1,Variable,1.2,-,N/A,,Haze,0,2013-03-07 05:20:00
7:50 AM,46.4,35.6,66,30.30,3.1,Variable,1.2,-,N/A,,Haze,0,2013-03-07 05:50:00
8:20 AM,50.0,33.8,54,30.27,4.3,Variable,2.3,-,N/A,,Unknown,0,2013-03-07 06:20:00
8:50 AM,53.6,30.2,41,30.27,-9999.0,NNE,3.5,-,N/A,,Clear,30,2013-03-07 06:50:00
9:20 AM,55.4,28.4,36,30.27,-9999.0,NE,4.6,-,N/A,,Clear,50,2013-03-07 07:20:00
9:50 AM,57.2,26.6,31,30.27,-9999.0,ENE,4.6,-,N/A,,Clear,60,2013-03-07 07:50:00
10:20 AM,57.2,17.6,21,30.27,-9999.0,NE,4.6,-,N/A,,Clear,50,2013-03-07 08:20:00
10:50 AM,59.0,19.4,22,30.24,-9999.0,ENE,6.9,-,N/A,,Clear,60,2013-03-07 08:50:00
11:20 AM,60.8,21.2,22,30.24,-9999.0,Variable,3.5,-,N/A,,Clear,0,2013-03-07 09:20:00
11:50 AM,60.8,23.0,23,30.24,-9999.0,Variable,4.6,-,N/A,,Clear,0,2013-03-07 09:50:00
12:20 PM,62.6,21.2,20,30.21,-9999.0,SE,3.5,-,N/A,,Clear,130,2013-03-07 10:20:00
12:50 PM,62.6,19.4,19,30.21,6.2,Variable,3.5,-,N/A,,Mostly Cloudy,0,2013-03-07 10:50:00
1:20 PM,60.8,17.6,19,30.21,6.2,South,4.6,-,N/A,,Mostly Cloudy,170,2013-03-07 11:20:00
1:50 PM,64.4,21.2,19,30.18,6.2,SSW,3.5,-,N/A,,Mostly Cloudy,200,2013-03-07 11:50:00
2:20 PM,64.4,21.2,19,30.18,6.2,Variable,3.5,-,N/A,,Mostly Cloudy,0,2013-03-07 12:20:00
2:50 PM,62.6,21.2,20,30.15,6.2,East,4.6,-,N/A,,Mostly Cloudy,80,2013-03-07 12:50:00
3:20 PM,62.6,23.0,22,30.15,6.2,SE,4.6,-,N/A,,Scattered Clouds,130,2013-03-07 13:20:00
3:50 PM,62.6,23.0,22,30.15,6.2,Variable,2.3,-,N/A,,Scattered Clouds,0,2013-03-07 13:50:00
4:20 PM,60.8,23.0,23,30.15,6.2,East,5.8,-,N/A,,Scattered Clouds,100,2013-03-07 14:20:00
4:50 PM,59.0,23.0,25,30.15,6.2,ESE,5.8,-,N/A,,Mostly Cloudy,120,2013-03-07 14:50:00
5:20 PM,57.2,28.4,33,30.15,6.2,SSE,4.6,-,N/A,,Mostly Cloudy,150,2013-03-07 15:20:00
5:50 PM,55.4,28.4,36,30.15,3.1,SE,4.6,-,N/A,,Haze,140,2013-03-07 15:50:00
6:20 PM,53.6,32.0,44,30.18,3.1,South,4.6,-,N/A,,Haze,170,2013-03-07 16:20:00
6:50 PM,51.8,32.0,47,30.18,3.1,Variable,2.3,-,N/A,,Haze,0,2013-03-07 16:50:00
7:20 PM,51.8,33.8,50,30.18,3.1,Calm,Calm,-,N/A,,Haze,0,2013-03-07 17:20:00
7:50 PM,50.0,33.8,54,30.18,3.1,Variable,1.2,-,N/A,,Haze,0,2013-03-07 17:50:00
8:20 PM,50.0,33.8,54,30.18,3.1,NNE,3.5,-,N/A,,Haze,20,2013-03-07 18:20:00
8:50 PM,50.0,33.8,54,30.18,3.1,NNE,4.6,-,N/A,,Haze,20,2013-03-07 18:50:00
9:20 PM,50.0,33.8,54,30.18,3.1,NNE,3.5,-,N/A,,Haze,30,2013-03-07 19:20:00
9:50 PM,50.0,35.6,58,30.15,3.1,North,5.8,-,N/A,,Haze,10,2013-03-07 19:50:00
10:20 PM,51.8,35.6,54,30.15,3.1,NNW,5.8,-,N/A,,Haze,340,2013-03-07 20:20:00
10:50 PM,50.0,33.8,54,30.15,3.1,NNW,4.6,-,N/A,,Haze,340,2013-03-07 20:50:00
11:20 PM,50.0,35.6,58,30.15,3.1,Variable,2.3,-,N/A,,Haze,0,2013-03-07 21:20:00
11:50 PM,50.0,35.6,58,30.12,3.1,NE,4.6,-,N/A,,Haze,40,2013-03-07 21:50:00